Weather History for Bethel, AK

Change the Weather History Date:

Monday, October 21, 2013

  Actual Average Record
Temperature  
Mean Temperature 36 °F 28 °F  
Max Temperature 42 °F 33 °F 54 °F (1926)
Min Temperature 30 °F 22 °F 3 °F (1928)
Degree Days  
Heating Degree Days 29 38  
Month to date heating degree days 533 675  
Since 1 July heating degree days 1728 1901  
Cooling Degree Days 0    
Month to date cooling degree days 0  
Year to date cooling degree days 18  
Moisture  
Dew Point 34 °F    
Average Humidity 0    
Maximum Humidity 0    
Minimum Humidity 0    
Precipitation  
Precipitation 0.07 in 0.04 in 0.34 in (1957)
Month to date precipitation 3.58 1.20  
Year to date precipitation 16.58 15.37  
Snow  
Snow 0.00 in 0.20 in 1.50 in (1985)
Month to date snowfall 0.0 2.2  
Since 1 July snowfall T 2.8  
Since 1 September snowfall 0.0 2.8  
Snow Depth 0.00 in    
Sea Level Pressure  
Sea Level Pressure 29.78 in    
Wind  
Wind Speed 12 mph (SSE)    
Max Wind Speed 24 mph    
Max Gust Speed 30 mph    
Visibility 10 miles    
Events Rain    
T = Trace of Precipitation, MM = Missing Value Source: NWS Daily Summary

Daily Weather History Graph

Daily Weather History Graph

Search for Another Location

Airport:

Trip Planner

Search our weather history database for the weather conditions in past years. The results will help you decide how hot, cold, wet, or windy it might be!

Date:

Astronomy

Oct. 21, 2013 Rise Set
Actual Time 9:45 AM AKDT 7:17 PM AKDT
Civil Twilight 9:01 AM AKDT 8:01 PM AKDT
Nautical Twilight 8:11 AM AKDT 8:50 PM AKDT
Astronomical Twilight 7:21 AM AKDT 9:40 PM AKDT
Moon 8:34 PM AKDT (10/21) 1:14 PM AKDT (10/21)
Length of Visible Light 11h 00m
Length of Day
9h 31m
Waning Gibbous, 92% of the Moon is Illuminated
Oct 21
Waning Gibbous
Oct 26
Last Quarter
Nov 3
New
Nov 9
First Quarter
Nov 17
Full

Hourly Weather History & Observations

Time (AKDT) Temp. Windchill Dew Point Humidity Pressure Visibility Wind Dir Wind Speed Gust Speed Precip Events Conditions
12:53 AM 36.0 °F 26.0 °F 34.0 °F 93% 29.70 in 10.0 mi SSE 17.3 mph 26.5 mph 0.00 in   Mostly Cloudy
1:53 AM 36.0 °F 26.0 °F 35.1 °F 97% 29.71 in 10.0 mi SSE 17.3 mph 27.6 mph 0.01 in Rain Light Rain
2:12 AM 35.6 °F 25.5 °F 35.6 °F 100% 29.70 in 10.0 mi SSE 17.3 mph 24.2 mph 0.00 in Rain Light Rain
2:21 AM 35.6 °F 24.8 °F 35.6 °F 100% 29.71 in 10.0 mi SSE 19.6 mph - 0.00 in   Overcast
2:28 AM 35.6 °F 25.2 °F 35.6 °F 100% 29.71 in 10.0 mi South 18.4 mph - 0.00 in Rain Light Rain
2:48 AM 35.6 °F 25.9 °F 33.8 °F 93% 29.71 in 10.0 mi SSE 16.1 mph 29.9 mph 0.01 in   Overcast
2:53 AM 36.0 °F 26.0 °F 34.0 °F 93% 29.72 in 10.0 mi South 17.3 mph - 0.01 in   Overcast
3:27 AM 35.6 °F 25.2 °F 33.8 °F 93% 29.71 in 10.0 mi SSE 18.4 mph 26.5 mph 0.00 in   Overcast
3:53 AM 36.0 °F 26.0 °F 34.0 °F 93% 29.72 in 10.0 mi SSE 17.3 mph - 0.00 in Rain Light Rain
4:34 AM 35.6 °F 25.9 °F 33.8 °F 93% 29.72 in 10.0 mi SSE 16.1 mph - 0.00 in   Overcast
4:53 AM 36.0 °F 26.3 °F 34.0 °F 93% 29.73 in 10.0 mi SSE 16.1 mph - 0.00 in   Overcast
5:53 AM 36.0 °F 28.0 °F 35.1 °F 97% 29.73 in 10.0 mi SSE 11.5 mph - 0.00 in   Overcast
6:53 AM 35.1 °F 25.5 °F 34.0 °F 96% 29.74 in 9.0 mi SSE 15.0 mph 21.9 mph 0.02 in Rain Light Rain
7:01 AM 35.6 °F 25.9 °F 33.8 °F 93% 29.73 in 10.0 mi SSE 16.1 mph - 0.00 in Rain Light Rain
7:23 AM 35.6 °F 26.6 °F 33.8 °F 93% 29.74 in 10.0 mi SSE 13.8 mph - 0.02 in Rain Light Rain
7:49 AM 35.6 °F 28.0 °F 33.8 °F 93% 29.74 in 10.0 mi SSE 10.4 mph - 0.03 in Rain Light Rain
7:53 AM 35.1 °F 27.9 °F 34.0 °F 96% 29.75 in 10.0 mi SSE 9.2 mph - 0.03 in   Overcast
8:26 AM 35.6 °F 27.5 °F 33.8 °F 93% 29.74 in 10.0 mi SSE 11.5 mph - N/A   Overcast
8:33 AM 35.6 °F 27.5 °F 33.8 °F 93% 29.75 in 10.0 mi SSE 11.5 mph - N/A   Overcast
8:53 AM 36.0 °F 28.5 °F 34.0 °F 93% 29.75 in 10.0 mi SSE 10.4 mph - N/A   Overcast
9:35 AM 35.6 °F 27.5 °F 33.8 °F 93% 29.75 in 10.0 mi SSE 11.5 mph - N/A   Overcast
9:53 AM 35.1 °F 26.9 °F 34.0 °F 96% 29.76 in 10.0 mi SSE 11.5 mph - N/A   Overcast
10:44 AM 35.6 °F 27.5 °F 33.8 °F 93% 29.77 in 10.0 mi SSE 11.5 mph - N/A   Mostly Cloudy
10:53 AM 35.1 °F 26.9 °F 34.0 °F 96% 29.78 in 10.0 mi SSE 11.5 mph - N/A   Mostly Cloudy
11:24 AM 35.6 °F 27.5 °F 33.8 °F 93% 29.78 in 10.0 mi SSE 11.5 mph - N/A   Mostly Cloudy
11:53 AM 37.0 °F 29.3 °F 35.1 °F 93% 29.80 in 10.0 mi SSE 11.5 mph - N/A   Overcast
12:31 PM 37.4 °F 29.3 °F 35.6 °F 93% 29.80 in 10.0 mi SSE 12.7 mph - N/A   Overcast
12:53 PM 37.9 °F 29.6 °F 35.1 °F 89% 29.81 in 10.0 mi South 13.8 mph - N/A   Overcast
1:53 PM 39.0 °F 31.4 °F 36.0 °F 89% 29.81 in 10.0 mi SSE 12.7 mph - 0.00 in   Mostly Cloudy
2:53 PM 41.0 °F 33.1 °F 36.0 °F 82% 29.82 in 10.0 mi South 15.0 mph - N/A   Mostly Cloudy
3:53 PM 41.0 °F 33.9 °F 35.1 °F 79% 29.82 in 10.0 mi SSE 12.7 mph - N/A   Mostly Cloudy
4:53 PM 41.0 °F 33.9 °F 35.1 °F 79% 29.83 in 10.0 mi South 12.7 mph - N/A   Mostly Cloudy
5:53 PM 39.9 °F 32.9 °F 34.0 °F 79% 29.85 in 10.0 mi South 11.5 mph - N/A   Mostly Cloudy
6:53 PM 37.0 °F 31.6 °F 34.0 °F 89% 29.86 in 10.0 mi SSE 6.9 mph - N/A   Partly Cloudy
7:53 PM 32.0 °F 26.4 °F 30.9 °F 96% 29.88 in 10.0 mi SSE 5.8 mph - N/A   Scattered Clouds
8:53 PM 32.0 °F 25.6 °F 30.9 °F 96% 29.89 in 10.0 mi South 6.9 mph - N/A   Scattered Clouds
9:53 PM 30.9 °F 23.5 °F 30.9 °F 100% 29.91 in 10.0 mi South 8.1 mph - N/A   Scattered Clouds
10:53 PM 30.9 °F 23.5 °F 30.0 °F 96% 29.93 in 10.0 mi SSE 8.1 mph - N/A   Scattered Clouds
11:53 PM 32.0 °F 24.8 °F 30.9 °F 96% 29.95 in 10.0 mi SSE 8.1 mph - N/A   Scattered Clouds